Location: *
(31.1797°N, 45.4522°E)
Time: 03:31:05
(UTC+00:00)

Daily predictions for brighter satellites

Satellite Brightness Start Highest point End
(mag) Time Altitude Azimuth Time Altitude Azimuth Time Altitude Azimuth
Cosmos 1680 Rocket 3.9 00:02:13 10° N 00:07:28 62° ENE 00:12:38 10° SSE
Cosmos 2341 Rocket 4.0 00:01:33 10° N 00:07:57 86° E 00:12:51 18° S
CZ-2C R/B 2.6 00:04:28 10° N 00:08:04 72° WNW 00:08:04 72° WNW
COSMOS 2406 3.2 00:06:06 39° S 00:08:15 77° ESE 00:13:55 10° NNE
CZ-2D R/B 4.1 00:05:58 10° NW 00:08:35 14° WNW 00:08:49 14° WNW
Cosmos 1937 Rocket 3.5 00:07:54 40° S 00:09:47 75° ESE 00:15:00 10° NNE
Cosmos 1898 Rocket 3.5 00:09:04 48° SW 00:10:31 74° WNW 00:15:51 10° NNE
SL-08 R/B 4.4 00:12:52 28° WNW 00:12:52 28° WNW 00:15:57 10° NW
CENTAUR R/B 3.1 00:06:31 10° NNW 00:14:52 74° WSW 00:23:31 10° SSE
ATLAS 3B R/B 2.7 00:11:33 10° NW 00:18:03 55° WSW 00:24:44 10° S
Cosmos 2154 Rocket 4.4 00:13:06 10° NNW 00:19:01 43° W 00:20:56 34° SW
Meteor 1-12 Rocket 4.5 00:17:25 38° SW 00:19:26 55° W 00:25:19 10° N
Cosmos 2218 Rocket 4.4 00:15:20 10° N 00:21:29 62° E 00:27:39 10° SSE
Milstar 3 Cent rocket 2.4 00:20:11 39° SSW 00:21:32 50° SSE 00:27:47 10° E
Cosmos 1689 Rocket 3.1 00:23:33 35° NW 00:23:33 35° NW 00:25:30 10° NNW
RESURS DK-1 4.4 00:24:52 16° WNW 00:24:57 16° WNW 00:27:30 10° NNW
Cosmos 1536 Rocket 4.2 00:21:31 10° NNW 00:25:36 36° W 00:25:44 36° W
ISS -2.8 00:26:28 10° NNW 00:29:41 47° NE 00:32:52 10° ESE
GOES 2 Rocket 3.9 00:32:27 29° S 00:32:27 29° S 00:35:41 10° SE
Cosmos 1441 Rocket 4.1 00:31:49 16° SSE 00:34:35 46° E 00:38:17 10° NNE
Cosmos 1544 3.6 00:36:28 38° W 00:36:55 40° W 00:40:25 10° N
PSLV R/B 4.3 00:37:06 10° SSE 00:41:06 64° ENE 00:45:09 10° N
Cosmos 1833 Rocket 3.0 00:42:56 13° S 00:47:52 66° ESE 00:53:28 10° NNE
Aureole 2 Rocket 2.4 00:45:37 10° N 00:48:44 64° ENE 00:51:37 10° SSE
Atlas Centaur 2 2.4 00:45:07 22° WSW 00:49:32 64° SSE 00:55:00 10° E
H-2A R/B 2.7 00:49:51 10° N 00:54:17 61° WNW 00:57:35 18° SSW
Nadezhda 3 Rocket 4.4 00:52:13 10° S 00:58:31 70° E 01:04:49 10° N
Cosmos 2112 Rocket 4.3 00:53:49 10° NNW 00:58:52 46° WSW 01:03:52 10° S
MSX 4.3 00:53:24 10° NNE 00:59:08 62° ESE 01:04:49 10° S
SL-8 Rocket 4.2 00:53:31 10° NNW 00:59:34 50° W 01:05:37 10° SSW
Iridium 61 4.2 01:04:45 15° SSE 01:06:03 45° E 01:07:41 10° NNE
Cosmos 2298 Rocket 4.1 01:02:18 14° SSW 01:06:45 62° WNW 01:12:00 10° N
ADEOS 4.1 01:01:52 10° N 01:06:45 41° WNW 01:10:53 14° SW
OAO 1 Rocket 4.4 01:02:42 17° WSW 01:06:46 84° SSE 01:12:04 10° ENE
DELTA 2 R/B(2) 4.1 01:05:01 10° NW 01:06:47 38° NNE 01:08:21 10° E
Cosmos 1707 2.9 01:04:46 10° NNW 01:08:30 50° W 01:12:12 10° SSW
Okean 1-7 Rocket 3.6 01:05:46 10° N 01:10:18 71° W 01:14:45 10° S
PAYLOAD A 4.4 01:06:24 10° NNE 01:11:47 72° ESE 01:17:11 10° S
USA 215 3.2 01:08:47 10° SE 01:15:18 72° SW 01:21:49 10° NW
GPS 2-05 Rocket1 3.5 01:13:49 17° WSW 01:15:23 26° SSW 01:17:56 10° SSE
Cosmos 2150 Rocket 4.2 01:12:17 11° SSW 01:17:08 54° WNW 01:22:13 10° N
Cosmos 2082 Rocket 2.2 01:11:35 10° SSW 01:17:11 85° ESE 01:22:49 10° NNE
COSMOS 2441 4.4 01:13:23 10° NNE 01:18:14 85° E 01:23:01 10° S
PSLV R/B 4.4 01:15:51 10° N 01:19:34 31° WNW 01:23:06 11° SW
Cosmos 1656 4.2 01:16:18 10° NNW 01:22:00 67° ENE 01:27:37 10° SSE
Meteor 1-28 Rocket 4.4 01:19:21 10° SSW 01:22:26 23° W 01:25:32 10° NW
Cosmos 1766 3.2 01:23:00 10° S 01:26:51 77° W 01:30:43 10° N
FALCON 9 R/B 1.3 01:28:10 10° W 01:30:20 49° N 01:34:03 10° ENE
Cosmos 1674 3.9 01:26:53 10° N 01:30:35 46° E 01:34:17 10° SSE
Cosmos 1544 Rocket 4.1 01:28:46 10° SSW 01:32:49 38° W 01:36:52 10° NNW
Meteor PRIRODA 4.1 01:30:21 10° NNE 01:34:01 64° E 01:37:40 10° S
SJ 16-02 3.4 01:34:56 10° W 01:36:29 12° WNW 01:38:02 10° NW
TSX-5 3.5 01:33:34 10° NNW 01:36:43 76° ENE 01:40:11 10° SSE
IDEFIX/ARIANE 42P 3.4 01:32:49 10° N 01:37:25 33° WNW 01:42:00 10° SW
Meteor 2-5 Rocket 3.7 01:36:02 10° N 01:41:39 82° W 01:47:10 10° S
